Location: Batang Balui
(2.7000°N, 113.7833°E)
Time: 04:45:24
(UTC+00:00)

AO-109 - Pass Details

Date: 11 April 2023
Orbit: 441 x 460 km, 60.7° (Epoch: 06 June)

Event Time Altitude Azimuth Distance (km) Brightness Sun altitude
Rises 11:23:29 0° 350° (N) 2,415 ? -13.8°
Reaches altitude 10° 11:25:46 10° 3° (N) 1,552 ? -14.4°
Maximum altitude 11:28:47 28° 64° (ENE) 861 ? -15.1°
Enters shadow 11:29:02 28° 72° (ENE) 868 ? -15.2°
